TimeMST,TemperatureF,Dew PointF,Humidity,Sea Level PressureIn,VisibilityMPH,Wind Direction,Wind SpeedMPH,Gust SpeedMPH,PrecipitationIn,Events,Conditions,WindDirDegrees,DateUTC
12:53 AM,12.0,9.0,88,30.28,10.0,Calm,Calm,-,N/A,,Clear,0,2013-02-19 07:53:00
1:53 AM,10.9,8.1,88,30.28,9.0,WSW,4.6,-,N/A,,Clear,240,2013-02-19 08:53:00
2:53 AM,10.9,7.0,84,30.29,10.0,Calm,Calm,-,N/A,,Clear,0,2013-02-19 09:53:00
3:53 AM,9.0,5.0,84,30.31,10.0,Calm,Calm,-,N/A,,Clear,0,2013-02-19 10:53:00
4:53 AM,8.1,5.0,87,30.32,10.0,Calm,Calm,-,N/A,,Clear,0,2013-02-19 11:53:00
5:53 AM,7.0,3.9,87,30.34,10.0,NNE,5.8,-,N/A,,Clear,30,2013-02-19 12:53:00
6:53 AM,9.0,5.0,84,30.32,10.0,ESE,3.5,-,N/A,,Clear,110,2013-02-19 13:53:00
7:53 AM,16.0,12.0,84,30.32,10.0,Calm,Calm,-,N/A,,Clear,0,2013-02-19 14:53:00
8:53 AM,21.0,14.0,74,30.30,10.0,ESE,4.6,-,N/A,,Clear,120,2013-02-19 15:53:00
9:53 AM,25.0,17.1,72,30.28,10.0,ESE,6.9,-,N/A,,Clear,120,2013-02-19 16:53:00
11:53 AM,32.0,21.0,64,30.22,10.0,SE,10.4,17.3,N/A,,Clear,140,2013-02-19 18:53:00
12:53 PM,36.0,21.9,57,30.16,10.0,SSE,15.0,23.0,N/A,,Partly Cloudy,160,2013-02-19 19:53:00
1:53 PM,37.9,21.0,51,30.14,10.0,South,15.0,21.9,N/A,,Clear,170,2013-02-19 20:53:00
2:53 PM,39.0,21.0,49,30.12,10.0,SSE,19.6,26.5,N/A,,Clear,160,2013-02-19 21:53:00
3:53 PM,37.9,21.0,51,30.12,10.0,SSE,24.2,27.6,N/A,,Clear,160,2013-02-19 22:53:00
5:53 PM,33.1,19.9,59,30.12,10.0,SE,15.0,25.3,N/A,,Clear,140,2013-02-20 00:53:00
6:53 PM,32.0,19.9,61,30.12,10.0,SE,15.0,-,N/A,,Clear,140,2013-02-20 01:53:00
7:53 PM,30.0,19.0,64,30.11,10.0,SE,17.3,-,N/A,,Clear,140,2013-02-20 02:53:00
8:53 PM,28.9,18.0,64,30.09,10.0,SSE,20.7,-,N/A,,Clear,150,2013-02-20 03:53:00
9:53 PM,28.0,16.0,61,30.09,10.0,SSE,26.5,34.5,N/A,,Clear,150,2013-02-20 04:53:00
10:53 PM,27.0,16.0,63,30.05,10.0,SSE,28.8,36.8,N/A,,Clear,150,2013-02-20 05:53:00
11:53 PM,25.0,14.0,63,30.05,10.0,SSE,16.1,31.1,N/A,,Clear,150,2013-02-20 06:53:00